Location: Bear Valley Community Church - Hurst
(32.8460°N, 97.1828°W)
Time: 19:18:21
(UTC+00:00)

Cosmos 1328 Rocket - Pass Details

Date: 10 July 2022
Orbit: 600 x 627 km, 82.5° (Epoch: 17 August)

Event Time Altitude Azimuth Distance (km) Brightness Sun altitude
Rises 08:36:20 0° 343° (NNW) 2,886 7.5 -27.7°
Reaches altitude 10° 08:38:42 10° 334° (NNW) 1,972 6.5 -27.4°
Enters shadow 08:40:29 21° 319° (NW) 1,365 5.4 -27.2°
